Regional Weather Roundup
Issued by NWS Newport/Morehead, NC

Current Version | Previous Version | Text Only | Print | Product List | Glossary Off
Versions: 1 2 3 4 5 6 7 8 9 10 11 12 13 14 15 16 17 18 19 20 21 22 23 24 25 26 27 28 29 30 31 32 33 34 35 36 37 38 39 40 41 42 43 44 45 46 47 48 49 50
000 ASUS42 KMHX 271122 RWRMHX WEATHER ROUNDUP FOR EASTERN NORTH CAROLINA NATIONAL WEATHER SERVICE NEWPORT/MOREHEAD CITY NC 600 AM EST SAT DEC 27 2014 NOTE: "FAIR" INDICATES FEW OR NO CLOUDS BELOW 12,000 FEET WITH NO SIGNIFICANT WEATHER AND/OR OBSTRUCTIONS TO VISIBILITY NCZ015>017-031-032-045>047-102-103-271200- NORTH COAST CITY SKY/WX TMP DP RH WIND PRES REMARKS EDENTON N/A 35 34 97 CALM 30.31R ELIZABETH CITY PTCLDY 37 34 87 CALM 30.31R HAZE KITTY HAWK MOSUNNY 43 42 96 SW3 30.29R MANTEO N/A 36 36 100 CALM 30.30R FOG $$ NCZ045>047-081-094-103-104-271200- CENTRAL COAST CITY SKY/WX TMP DP RH WIND PRES REMARKS FRISCO CLEAR 35 35 100 N5 30.29S SWANQUARTER N/A 36 N/A N/A NW1 30.27S $$ NCZ095-097-098-100-101-271200- SOUTHERN COAST CITY SKY/WX TMP DP RH WIND PRES REMARKS BEAUFORT CLEAR 36 35 96 S5 30.30R CEDAR ISLAND N/A 39 N/A N/A CALM 30.33S JACKSONVILLE PTCLDY 33 32 96 CALM 30.29F PINEY ISLAND SUNNY 47 41 80 NW3 30.29S WILMINGTON PTCLDY 34 34 100 CALM 30.30S FOG $$ NCZ011>013-027>030-043-044-078>080-089-090>093-098-271200- COASTAL PLAIN CITY SKY/WX TMP DP RH WIND PRES REMARKS AHOSKIE CLEAR 31 30 96 CALM 30.30R CLINTON CLEAR 32 32 100 CALM 30.31S ELIZABETHTOWN CLEAR 33 32 97 CALM 30.30S GOLDSBORO PTCLDY 33 32 98 CALM 30.29R GREENVILLE CLEAR 34 34 100 CALM 30.32R FOG HAVELOCK CLEAR 35 32 88 N3 30.30S KENANSVILLE CLEAR 30 30 100 CALM 30.32R KINSTON NOT AVBL NEW BERN FOG 32 30 92 CALM 30.32R VSB 3/4 RICHLANDS PTCLDY 30 27 86 CALM 30.31R ROCKY MOUNT CLEAR 31 30 96 S3 30.30R FOG WASHINGTON CLEAR 32 31 95 CALM 30.32R WHITEVILLE CLEAR 34 32 93 CALM 30.29S $$ AMZ130-135-150-152-154-156-158-170-250-252-270-ANZ085-086-088-633-658-670-271200- MARINE OBSERVATIONS STATION/POSITION TIME TEMP WIND PRES WAVE SWELL AIR SEA DIR/SP/G HT/PER HT/PER (UTC) (F) (DEG/KT/KT) (MB) (FT/S) (FT/S) CHESAPEAKE LIGHT 1100 46 230/ 9/ 10 1026.1 64 E VA BEACH 1100 51 52 270/ 6/ 8 1024.9 2/17 2/17 DUCK 1100 46 51 220/ 4/ 5 1024.9 2 E DUCK 1100 50 N/A 2/13 2/13 10 NE DUCK 1100 50 N/A 2/12 2/12 OREGON INLET 1100 47 53 250/ 3/ 3 1026.0 13E OREGON INLT 1100 49 N/A 3/ 8 2/13 HATTERAS CG 1100 48 56 300/ 1/ 1 1026.3 DIAMOND BUOY 1100 55 1025.9 2/ 8 17 S OCRACOKE NOT AVBL CAPE LOOKOUT 1100 52 30/ 1/ 1 1025.7 BEAUFORT LAB 1100 46 54 200/ 2/ 3 1024.8 30 SE NEW RIVER 1100 57 60 360/ 4/ 6 1026.2 2/12 2/12 5 SE WRIGHTSVLE NOT AVBL 225 S CAPE HAT 1045 68 74 70/ 8/ 12 1025.1 3/12 3/12 41 SE CHARLESTON 1100 64 73 30/ 12/ 14 1024.3 3/ 8 2/ 8 $$

USA.gov is the U.S. government's official web portal to all federal, state and local government web resources and services.